DW3741 Weather Reports


Display with metric or nautical units.
time (UTC)temp
F
wind
direction
speed
MPH
gust
MPH
rain 1hr
in
rain 24hr
in
rain mn
in
humidity
%
barometer
mb
20260502181525 74 24 0.0 2.0 0.00 0.00 0.00 58 1014.6
20260502180452 74 24 1.0 2.0 0.00 0.00 0.00 58 1014.8
20260502163234 74 279 2.0 5.0 0.00 0.00 0.00 58 1015.8
20260502161713 73 258 2.0 10.0 0.00 0.00 0.00 57 1015.9
20260502160634 74 308 4.0 10.0 0.00 0.00 0.00 57 1016.1
20260502160216 73 341 3.0 7.0 0.00 0.00 0.00 58 1016.1
20260502123032 70 264 5.0 11.0 0.00 0.00 0.00 59 1017.8
20260502122614 71 210 3.0 7.0 0.00 0.00 0.00 59 1017.9
20260502122115 70 260 4.0 7.0 0.00 0.00 0.00 59 1017.9
20260502121533 70 205 1.0 6.0 0.00 0.00 0.00 58 1017.9
20260502121031 69 108 2.0 6.0 0.00 0.00 0.00 59 1018.1
20260502114928 69 144 2.0 5.0 0.00 0.00 0.00 58 1018.2
20260502113441 68 178 2.0 4.0 0.00 0.00 0.00 58 1018.4
20260502112946 67 230 2.0 4.0 0.00 0.00 0.00 58 1018.2
20260502111004 66 226 2.0 4.0 0.00 0.00 0.00 59 1018.4
20260502110048 65 354 1.0 4.0 0.00 0.00 0.00 61 1018.4
20260502104103 64 282 2.0 4.0 0.00 0.00 0.00 62 1018.6
20260502103525 64 207 2.0 4.0 0.00 0.00 0.00 62 1018.6
20260502102107 61 265 1.0 4.0 0.00 0.00 0.00 63 1018.6
20260502101607 61 271 1.0 5.0 0.00 0.00 0.00 62 1018.5
20260502100535 60 244 2.0 5.0 0.00 0.00 0.00 62 1018.5
20260502071527 51 136 1.0 3.0 0.00 0.00 0.00 67 1018.4
20260502070500 51 136 1.0 3.0 0.00 0.00 0.00 67 1018.4
20260502065538 51 136 1.0 3.0 0.00 0.00 0.00 66 1018.3
20260502064542 51 136 1.0 3.0 0.00 0.00 0.00 66 1018.4
20260502063010 51 136 1.0 3.0 0.00 0.00 0.00 66 1018.4
20260502062045 51 138 0.0 2.0 0.00 0.00 0.00 66 1018.5
20260502060556 51 138 1.0 2.0 0.00 0.00 0.00 66 1018.7
20260502055117 52 138 0.0 2.0 0.00 0.00 0.00 65 1018.9
20260502053627 53 138 1.0 3.0 0.00 0.00 0.00 64 1018.8
20260502052641 53 138 1.0 3.0 0.00 0.00 0.00 63 1018.9
20260502051638 53 139 1.0 3.0 0.00 0.00 0.00 62 1018.8
20260502045736 53 139 1.0 3.0 0.00 0.00 0.00 62 1019.1
20260502044656 54 141 1.0 3.0 0.00 0.00 0.00 61 1019.2
20260502044237 54 142 1.0 3.0 0.00 0.00 0.00 60 1019.2
20260502042752 55 142 0.0 2.0 0.00 0.00 0.00 60 1019.4
20260502042247 55 142 0.0 2.0 0.00 0.00 0.00 58 1019.3
20260502041240 55 142 0.0 1.0 0.00 0.00 0.00 58 1019.4
20260502040656 56 142 0.0 1.0 0.00 0.00 0.00 58 1019.3
20260502035333 56 142 0.0 1.0 0.00 0.00 0.00 56 1019.4
20260502034831 56 142 0.0 2.0 0.00 0.00 0.00 56 1019.3
20260502033759 57 142 1.0 2.0 0.00 0.00 0.00 55 1019.4
20260502032759 57 142 1.0 3.0 0.00 0.00 0.00 54 1019.4
20260502031752 57 144 1.0 3.0 0.00 0.00 0.00 54 1019.5
20260502031334 58 144 1.0 3.0 0.00 0.00 0.00 53 1019.7
20260502025849 58 144 1.0 2.0 0.00 0.00 0.00 52 1019.8
20260502025309 59 144 1.0 2.0 0.00 0.00 0.00 52 1019.9
20260502024813 59 145 1.0 2.0 0.00 0.00 0.00 51 1019.9
20260502022436 60 145 0.0 2.0 0.00 0.00 0.00 50 1020.2
20260502021938 60 145 0.0 2.0 0.00 0.00 0.00 50 1020.2
20260502021438 60 145 0.0 2.0 0.00 0.00 0.00 50 1020.2
20260502020934 60 145 0.0 3.0 0.00 0.00 0.00 50 1020.3
20260502020437 60 145 1.0 3.0 0.00 0.00 0.00 49 1020.3
20260502014415 60 145 1.0 3.0 0.00 0.00 0.00 49 1020.3
20260502013258 60 145 1.0 3.0 0.00 0.00 0.00 48 1020.4
20260502012756 61 145 1.0 3.0 0.00 0.00 0.00 49 1020.5
20260502012253 60 145 0.0 3.0 0.00 0.00 0.00 49 1020.5
20260502011328 61 145 1.0 2.0 0.00 0.00 0.00 49 1020.5
20260502010829 61 144 0.0 2.0 0.00 0.00 0.00 49 1020.5
20260502010328 61 144 0.0 2.0 0.00 0.00 0.00 49 1020.6
20260502005748 61 144 0.0 2.0 0.00 0.00 0.00 49 1020.6
20260502005247 61 142 1.0 2.0 0.00 0.00 0.00 48 1020.5
20260502004218 61 142 1.0 4.0 0.00 0.00 0.00 48 1020.5
20260502000040 63 134 0.0 3.0 0.00 0.00 0.00 46 1020.6
20260501235048 63 132 1.0 4.0 0.00 0.00 0.00 45 1020.6
20260501234007 64 138 2.0 4.0 0.00 0.00 0.00 44 1020.6
20260501231422 65 139 2.0 3.0 0.00 0.00 0.00 42 1020.6
20260501230347 65 125 1.0 2.0 0.00 0.00 0.00 42 1020.7
20260501222850 67 127 2.0 5.0 0.00 0.00 0.00 39 1020.9
20260501222311 67 115 1.0 4.0 0.00 0.00 0.00 39 1020.8
20260501214340 69 118 2.0 6.0 0.00 0.00 0.00 37 1020.8
20260501213842 69 118 2.0 6.0 0.00 0.00 0.00 37 1020.8
20260501213342 69 114 0.0 6.0 0.00 0.00 0.00 37 1020.8
20260501211319 71 117 1.0 5.0 0.00 0.00 0.00 35 1020.8
20260501204313 73 124 1.0 4.0 0.00 0.00 0.00 33 1020.8
20260501203246 73 127 1.0 4.0 0.00 0.00 0.00 32 1020.7
20260501195332 76 144 4.0 9.0 0.00 0.00 0.00 28 1020.7
20260501185221 78 175 3.0 9.0 0.00 0.00 0.00 26 1020.8
20260501184715 78 155 4.0 11.0 0.00 0.00 0.00 27 1020.8
20260501184211 78 193 3.0 11.0 0.00 0.00 0.00 27 1020.8
20260501183132 78 151 4.0 9.0 0.00 0.00 0.00 26 1020.9